GW5883 Weather Reports


time (UTC)temp
C
wind
direction
speed
KPH
gust
KPH
rain 1hr
cm
rain 24hr
cm
rain mn
cm
humidity
%
barometer
mb
20260504081811 12 199 1.6 1.6 0.00 0.00 0.00 65 1016.3
20260504081308 12 145 0.0 0.0 0.00 0.00 0.00 65 1016.2
20260504080804 12 161 0.0 1.6 0.00 0.00 0.00 65 1016.3
20260504080301 12 158 0.0 0.0 0.00 0.00 0.00 65 1016.3
20260504070228 12 126 0.0 0.0 0.00 0.00 0.00 63 1017.0
20260504060149 12 145 0.0 0.0 0.00 0.00 0.00 68 1017.4
20260504050617 11 148 0.0 0.0 0.00 0.00 0.00 71 1017.8
20260504050114 11 141 0.0 0.0 0.00 0.00 0.00 71 1017.9
20260504045611 11 145 0.0 0.0 0.00 0.00 0.00 70 1018.3
20260504045106 11 141 0.0 0.0 0.00 0.00 0.00 67 1018.2
20260504044604 11 141 0.0 0.0 0.00 0.00 0.00 68 1018.3
20260504044100 12 139 0.0 0.0 0.00 0.00 0.00 66 1018.3
20260504043558 12 140 0.0 0.0 0.00 0.00 0.00 64 1018.2
20260504043055 12 137 0.0 0.0 0.00 0.00 0.00 63 1018.2
20260504042552 12 140 0.0 0.0 0.00 0.00 0.00 62 1018.2
20260504042049 13 136 0.0 0.0 0.00 0.00 0.00 60 1018.4
20260504041545 13 135 0.0 0.0 0.00 0.00 0.00 57 1018.2
20260504041041 13 125 0.0 0.0 0.00 0.00 0.00 56 1018.2
20260504040538 13 136 0.0 0.0 0.00 0.00 0.00 57 1018.0
20260504040035 13 133 0.0 0.0 0.00 0.00 0.00 55 1018.1
20260504035532 14 168 0.0 1.6 0.00 0.00 0.00 55 1017.9
20260504035028 14 135 0.0 0.0 0.00 0.00 0.00 54 1017.6
20260504034526 14 162 1.6 1.6 0.00 0.00 0.00 53 1017.8
20260504034023 14 142 0.0 0.0 0.00 0.00 0.00 53 1017.8
20260504033521 14 158 0.0 0.0 0.00 0.00 0.00 53 1017.5
20260504033018 14 161 0.0 0.0 0.00 0.00 0.00 54 1017.8
20260504032515 14 281 1.6 1.6 0.00 0.00 0.00 54 1017.7
20260504032011 14 147 1.6 1.6 0.00 0.00 0.00 56 1017.9
20260504031508 13 144 0.0 1.6 0.00 0.00 0.00 55 1017.8
20260504031005 13 151 0.0 1.6 0.00 0.00 0.00 60 1017.7
20260504030502 12 146 0.0 0.0 0.00 0.00 0.00 59 1017.9
20260504025957 12 135 0.0 0.0 0.00 0.00 0.00 63 1018.1
20260504025455 12 143 0.0 0.0 0.00 0.00 0.00 65 1018.0
20260504024952 12 139 0.0 0.0 0.00 0.00 0.00 67 1017.9
20260504024449 12 137 0.0 0.0 0.00 0.00 0.00 69 1018.0
20260504023946 12 143 0.0 0.0 0.00 0.00 0.00 71 1018.2
20260504023442 11 142 0.0 0.0 0.00 0.00 0.00 70 1018.3
20260504022938 11 147 0.0 0.0 0.00 0.00 0.00 69 1018.2
20260504022435 12 144 0.0 0.0 0.00 0.00 0.00 68 1018.2
20260504021931 12 156 0.0 0.0 0.00 0.00 0.00 68 1018.2
20260504021429 12 147 0.0 0.0 0.00 0.00 0.00 68 1018.4
20260504020926 12 149 0.0 0.0 0.00 0.00 0.00 67 1018.2
20260504020422 12 144 0.0 0.0 0.00 0.00 0.00 67 1018.3
20260504015919 12 143 0.0 0.0 0.00 0.00 0.00 66 1018.4
20260504015415 12 142 0.0 0.0 0.00 0.00 0.00 66 1018.5
20260504014911 13 142 0.0 0.0 0.00 0.00 0.00 65 1018.5
20260504014407 13 141 0.0 0.0 0.00 0.00 0.00 61 1018.6
20260504013904 13 142 0.0 0.0 0.00 0.00 0.00 58 1018.5
20260504013403 13 136 0.0 0.0 0.00 0.00 0.00 59 1018.2
20260504012859 13 133 0.0 0.0 0.00 0.00 0.00 60 1018.3
20260504012357 13 138 0.0 0.0 0.00 0.00 0.00 60 1018.2
20260504011854 14 144 0.0 0.0 0.00 0.00 0.00 58 1018.1
20260504011350 14 139 0.0 0.0 0.00 0.00 0.00 57 1018.3
20260504010846 15 140 0.0 0.0 0.00 0.00 0.00 55 1017.9
20260504010342 15 142 0.0 0.0 0.00 0.00 0.00 53 1018.0
20260504005839 15 143 0.0 0.0 0.00 0.00 0.00 53 1017.9
20260504005335 15 143 0.0 0.0 0.00 0.00 0.00 52 1017.9
20260504004833 15 140 0.0 0.0 0.00 0.00 0.00 53 1017.7
20260504004331 16 144 0.0 0.0 0.00 0.00 0.00 52 1017.8
20260504003827 16 142 0.0 0.0 0.00 0.00 0.00 48 1018.0
20260504003324 16 141 0.0 0.0 0.00 0.00 0.00 45 1017.9
20260504002820 16 150 0.0 0.0 0.00 0.00 0.00 46 1017.8
20260504002317 17 143 0.0 0.0 0.00 0.00 0.00 45 1018.1
20260504001815 17 162 0.0 0.0 0.00 0.00 0.00 44 1018.0
20260504001312 17 152 0.0 0.0 0.00 0.00 0.00 44 1018.2
20260504000809 17 143 0.0 0.0 0.00 0.00 0.00 42 1018.0
20260504000306 17 151 0.0 0.0 0.00 0.00 0.00 42 1018.0
20260503235804 18 140 1.6 3.2 0.00 0.00 0.00 40 1018.1
20260503235301 18 187 1.6 1.6 0.00 0.00 0.00 40 1018.2
20260503234758 18 131 0.0 0.0 0.00 0.00 0.00 39 1018.4
20260503234256 18 137 0.0 0.0 0.00 0.00 0.00 40 1018.4
20260503233753 18 44 1.6 1.6 0.00 0.00 0.00 41 1018.1
20260503233249 18 153 0.0 0.0 0.00 0.00 0.00 40 1018.5
20260503232746 18 146 0.0 0.0 0.00 0.00 0.00 39 1018.4
20260503232243 18 129 0.0 1.6 0.00 0.00 0.00 38 1018.5
20260503231741 19 137 1.6 1.6 0.00 0.00 0.00 39 1018.7
20260503231238 19 145 0.0 0.0 0.00 0.00 0.00 38 1018.6
20260503230734 19 197 3.2 4.8 0.00 0.00 0.00 37 1018.7
20260503230232 19 117 0.0 0.0 0.00 0.00 0.00 39 1018.8
20260503225729 19 117 0.0 0.0 0.00 0.00 0.00 37 1018.9
20260503225229 19 145 0.0 0.0 0.00 0.00 0.00 36 1019.0
20260503224726 20 206 3.2 4.8 0.00 0.00 0.00 35 1019.0
20260503224224 19 150 0.0 0.0 0.00 0.00 0.00 38 1019.0
20260503223721 20 131 0.0 1.6 0.00 0.00 0.00 37 1019.1
20260503223219 20 145 0.0 0.0 0.00 0.00 0.00 38 1019.1
20260503222715 20 166 0.0 1.6 0.00 0.00 0.00 38 1019.2
20260503222213 20 147 1.6 1.6 0.00 0.00 0.00 36 1019.3
20260503221711 20 202 3.2 4.8 0.00 0.00 0.00 36 1019.6
20260503221209 20 17 3.2 3.2 0.00 0.00 0.00 35 1019.5
20260503220705 20 151 1.6 1.6 0.00 0.00 0.00 35 1019.5
20260503220201 20 104 1.6 1.6 0.00 0.00 0.00 34 1019.4
20260503215658 20 136 0.0 0.0 0.00 0.00 0.00 36 1019.3
20260503215155 20 73 1.6 1.6 0.00 0.00 0.00 36 1019.6
20260503214649 20 138 0.0 1.6 0.00 0.00 0.00 34 1019.6
20260503214144 20 171 1.6 1.6 0.00 0.00 0.00 37 1019.5
20260503213643 20 335 1.6 4.8 0.00 0.00 0.00 35 1019.6
20260503213139 20 142 0.0 0.0 0.00 0.00 0.00 36 1019.7
20260503212637 20 138 1.6 1.6 0.00 0.00 0.00 35 1019.9
20260503212134 20 119 4.8 6.4 0.00 0.00 0.00 33 1020.2
20260503211632 20 137 0.0 0.0 0.00 0.00 0.00 35 1020.3
20260503211127 20 69 0.0 1.6 0.00 0.00 0.00 34 1020.3
20260503210624 20 156 1.6 1.6 0.00 0.00 0.00 36 1020.4
20260503210120 20 218 1.6 1.6 0.00 0.00 0.00 36 1020.5
20260503205616 20 179 1.6 1.6 0.00 0.00 0.00 37 1020.5
20260503205112 20 132 1.6 1.6 0.00 0.00 0.00 35 1020.6
20260503204609 20 149 0.0 1.6 0.00 0.00 0.00 33 1020.5
20260503204107 20 155 3.2 3.2 0.00 0.00 0.00 34 1020.7
20260503203604 20 167 0.0 1.6 0.00 0.00 0.00 36 1021.0
20260503203101 20 157 3.2 4.8 0.00 0.00 0.00 34 1020.8
20260503202559 20 124 4.8 9.7 0.00 0.00 0.00 33 1021.0
20260503202056 20 146 1.6 1.6 0.00 0.00 0.00 34 1021.0
20260503201554 20 162 0.0 0.0 0.00 0.00 0.00 36 1021.2
20260503201051 20 141 0.0 0.0 0.00 0.00 0.00 38 1021.1
20260503200547 20 94 3.2 4.8 0.00 0.00 0.00 34 1021.3
20260503200044 20 139 1.6 3.2 0.00 0.00 0.00 35 1021.5
20260503195541 20 67 0.0 1.6 0.00 0.00 0.00 34 1021.5
20260503195038 20 300 1.6 3.2 0.00 0.00 0.00 35 1021.6
20260503194535 20 104 0.0 1.6 0.00 0.00 0.00 33 1021.7
20260503194035 20 167 0.0 0.0 0.00 0.00 0.00 34 1022.1
20260503193532 20 129 0.0 0.0 0.00 0.00 0.00 39 1022.3
20260503193027 20 139 1.6 1.6 0.00 0.00 0.00 40 1022.3
20260503192523 20 139 0.0 1.6 0.00 0.00 0.00 36 1022.2
20260503192020 20 145 1.6 1.6 0.00 0.00 0.00 39 1022.3
20260503191517 20 168 4.8 9.7 0.00 0.00 0.00 33 1022.6
20260503191013 20 57 1.6 1.6 0.00 0.00 0.00 34 1022.7
20260503190510 20 136 0.0 0.0 0.00 0.00 0.00 31 1022.9
20260503190007 20 79 3.2 4.8 0.00 0.00 0.00 32 1022.8
20260503185504 20 134 0.0 1.6 0.00 0.00 0.00 34 1022.8
20260503185003 20 100 1.6 1.6 0.00 0.00 0.00 35 1023.0
20260503184500 20 188 0.0 0.0 0.00 0.00 0.00 36 1022.9
20260503183956 20 150 0.0 0.0 0.00 0.00 0.00 36 1022.8
20260503183453 20 177 0.0 0.0 0.00 0.00 0.00 37 1023.1
20260503182950 20 138 1.6 3.2 0.00 0.00 0.00 33 1022.9
20260503182449 20 142 3.2 3.2 0.00 0.00 0.00 31 1023.2
20260503181946 20 239 1.6 3.2 0.00 0.00 0.00 33 1023.3
20260503181443 20 156 0.0 1.6 0.00 0.00 0.00 39 1023.4
20260503180939 20 154 0.0 0.0 0.00 0.00 0.00 32 1023.1
20260503180437 19 203 1.6 1.6 0.00 0.00 0.00 39 1023.4
20260503175934 18 151 1.6 1.6 0.00 0.00 0.00 33 1023.3
20260503175432 18 135 0.0 1.6 0.00 0.00 0.00 34 1023.6
20260503174927 19 169 0.0 0.0 0.00 0.00 0.00 34 1023.7
20260503174426 19 151 0.0 1.6 0.00 0.00 0.00 32 1023.7
20260503173926 19 187 0.0 1.6 0.00 0.00 0.00 34 1023.8
20260503173422 19 152 3.2 4.8 0.00 0.00 0.00 35 1023.8
20260503172919 18 223 0.0 0.0 0.00 0.00 0.00 34 1024.1
20260503172417 18 119 0.0 0.0 0.00 0.00 0.00 38 1023.9
20260503171913 18 163 0.0 0.0 0.00 0.00 0.00 35 1024.4
20260503171410 18 166 0.0 1.6 0.00 0.00 0.00 38 1024.3
20260503170907 18 203 1.6 3.2 0.00 0.00 0.00 36 1024.4
20260503170403 18 70 1.6 3.2 0.00 0.00 0.00 33 1024.3
20260503150755 14 42 3.2 4.8 0.00 0.00 0.00 41 1025.1
20260503150251 13 211 1.6 1.6 0.00 0.00 0.00 44 1025.1
20260503140216 11 175 1.6 1.6 0.00 0.00 0.00 65 1025.1
20260503131145 6 144 0.0 0.0 0.00 0.00 0.00 98 1025.0
20260503130643 6 144 0.0 0.0 0.00 0.00 0.00 98 1025.0
20260503130140 5 144 0.0 0.0 0.00 0.00 0.00 98 1025.1
20260503120106 2 144 0.0 0.0 0.00 0.00 0.00 97 1025.0
20260503110533 2 144 0.0 0.0 0.00 0.00 0.00 97 1024.3